Location: Peebles
(55.6412°N, 3.1714°W)
Time: 14:07:39
(UTC+01:00)

MetOp-B - Pass Details

Date: 26 September 2021
Orbit: 819 x 821 km, 98.7° (Epoch: 18 October)

Event Time Altitude Azimuth Distance (km) Brightness Sun altitude
Exits shadow 22:07:10 53° 193° (SSW) 1,008 4.4 -25.3°
Maximum altitude 22:08:22 71° 256° (WSW) 870 4.2 -25.4°
Drops below altitude 10° 22:13:45 10° 340° (NNW) 2,429 7.4 -26.0°
Sets 22:16:07 0° 343° (NNW) 3,366 8.2 -26.3°
